Location: ??????
(41.3164°N, 22.6615°E)
Time: 12:47:57
(UTC+00:00)

Cosmos 1300 - Visible Passes

Search period start: 29 May 2022 00:00
Search period end: 08 June 2022 00:00
Orbit: 505 x 510 km, 82.5° (Epoch: 28 May)

Date Brightness Start Highest point End Pass type
(mag) Time Alt. Az. Time Alt. Az. Time Alt. Az.
29 May 4.9 00:07:40 10° NW 00:08:57 15° WNW 00:08:57 15° WNW visible
29 May 4.8 22:14:24 10° NNE 22:16:37 20° ENE 22:16:37 20° ENE visible
29 May 4.7 23:49:47 10° NW 23:51:27 19° WNW 23:51:27 19° WNW visible
30 May 5.1 21:57:15 10° NNE 21:59:08 16° ENE 21:59:08 16° ENE visible
30 May 4.5 23:32:00 10° NNW 23:33:58 23° NW 23:33:58 23° NW visible
31 May 5.3 21:40:18 10° NE 21:41:40 13° ENE 21:41:40 13° ENE visible
31 May 4.3 23:14:18 10° NNW 23:16:30 28° NW 23:16:30 28° NW visible
01 Jun 4.1 22:56:38 10° NNW 22:59:01 34° NW 22:59:01 34° NW visible
02 Jun 3.9 22:39:02 10° NNW 22:41:33 40° NNW 22:41:33 40° NNW visible
03 Jun 3.8 22:21:27 10° N 22:24:06 43° N 22:24:06 43° N visible
04 Jun 3.8 22:03:56 10° N 22:06:38 42° NNE 22:06:38 42° NNE visible
05 Jun 3.9 21:46:26 10° N 21:49:11 37° NE 21:49:11 37° NE visible
06 Jun 4.1 21:28:59 10° N 21:31:44 31° NE 21:31:44 31° NE visible
06 Jun 5.2 23:05:36 10° NW 23:06:35 13° WNW 23:06:35 13° WNW visible
07 Jun 4.3 21:11:37 10° NNE 21:14:18 25° ENE 21:14:18 25° ENE visible
07 Jun 5.0 22:47:30 10° NW 22:49:08 17° WNW 22:49:08 17° WNW visible
